Back to catalog

STARLINK-34839

AliveCommunicationsVLEO
NORAD 65703·PAYLOAD·🇺🇸 United States

Launched Sep 21, 2025 from Cape Canaveral Space Force Station

Loading…

Next Passes (next 24 hours)

TLE

FreshSource: CelesTrak SupGP

Epoch: Sep 14, 2026, 22:51 UTC

1 65703C 25212AD  26257.95256944 -.00035288  00000+0 -11343-2 0  2577
2 65703  53.1575 185.0862 0001266 107.1127 172.2280 15.31732271    18

Track STARLINK-34839 in real time with AllMySat

Download on the App Store